Regional Weather Roundup
Issued by NWS Grand Forks, ND

Home | Current Version | Previous Version | Graphics & Text | Print | Product List | Glossary On
Versions: 1 2 3 4 5 6 7 8 9 10 11 12 13 14 15 16 17 18 19 20 21 22 23 24 25 26 27 28 29 30 31 32 33 34 35 36 37 38 39 40 41 42 43 44 45 46 47 48 49 50
000
ASUS43 KFGF 020510
RWRFGF
PRAIRIE TO PINES  WEATHER ROUNDUP
NATIONAL WEATHER SERVICE EASTERN NORTH DAKOTA/GRAND FORKS ND
1200 AM CDT SAT AUG 02 2014

 **SATELLITE DATA USED TO AUGMENT SKY COVER AT AUTOMATED STATIONS**
 *****  WEATHER ACROSS EASTERN NORTH DAKOTA  *****

CITY           SKY/WX    TMP DP  RH WIND       PRES   REMARKS
GRAND FORKS    CLEAR     63  59  87 CALM      30.06S
GRAND FRKS AFB CLEAR     64  64  99 S3        30.07S
GRAND FRKS NWS   N/A     63 N/A N/A MISG        N/A
DEVILS LAKE    CLEAR     70  59  68 SE7       30.07S
FARGO          CLEAR     63  58  83 NE3       30.06F
WAHPETON ARPT  CLEAR     61  55  82 E3        30.08S
$$

 ***** WEATHER ACROSS CENTRAL AND WESTERN NORTH DAKOTA  *****

CITY           SKY/WX    TMP DP  RH WIND       PRES   REMARKS
BISMARCK       MOCLDY    65  62  90 SE3       30.10R
MINOT          CLEAR     64  60  87 CALM      30.08S
JAMESTOWN      MOCLDY    68  59  73 SE8       30.09R
MINOT AFB      CLEAR     61  60  99 CALM      30.08R
GARRISON         N/A     66  62  87 NE3       30.08S
WILLISTON      PTCLDY    71  55  56 W12       30.12R
DICKINSON      CLEAR     63  57  81 E7        30.12R
HETTINGER      CLEAR     66  59  78 E16       30.12R
$$

 *****  OTHER AIRPORT OBSERVATIONS IN OUR AREA  *****

CITY           SKY/WX    TMP DP  RH WIND       PRES   REMARKS
WALHALLA       NOT AVBL
GRAFTON AIRPOR FAIR      64  61  88 SW7       30.07R
VALLEY CITY AR FAIR      64  59  82 SE6       30.10R
CANDO          FAIR      63  59  88 CALM      30.09F
CAVALIER APRT  FAIR      66  61  82 CALM      30.07R
GWINNER          N/A     66  64  94 CALM      30.10R
SHEYENNE NWR     N/A     61  57  88 CALM      29.95S
ROLLA          FAIR      59  57  94 CALM      30.12R
 ***** THE ABOVE OBSERVATIONS ARE NON NWS ARE NOT QUALITY
       CONTROLLED AND MAY MIS-REPORT RAIN FOR SNOW...
$$

  *****  WEATHER ACROSS NORTHERN MINNESOTA  *****

CITY           SKY/WX    TMP DP  RH WIND       PRES   REMARKS
FLAG ISLAND    CLEAR     70  57  64 SW6       30.06R
WARROAD        CLEAR     64  57  77 SW5       30.08R
ROSEAU         CLEAR     61  55  82 CALM      30.07R
HALLOCK        CLEAR     64  61  88 S5        30.06S
THF RVR FALLS  CLEAR     63  61  94 CALM      30.09R
BAUDETTE       CLEAR     54  51  90 CALM      30.08S
WASKISH        CLEAR     54  52  94 CALM      30.09R
CROOKSTON      CLEAR     63  61  94 CALM      30.08S
$$
  *****  WEATHER ACROSS CENTRAL AND WEST MINNESOTA  *****

CITY           SKY/WX    TMP DP  RH WIND       PRES   REMARKS
FOSSTON        CLEAR     55  48  76 CALM      30.10S HAZE
BEMIDJI        CLEAR     57  55  92 CALM      30.09F
PARK RAPIDS    CLEAR     59  56  89 CALM      30.10R
ELBOW LAKE     FAIR      67  61  81 CALM      30.08S
WADENA         CLEAR     57  55  94 CALM      30.09S
DETROIT LAKES  CLEAR     64  63  94 CALM      30.11S
MOORHEAD       CLEAR     64  63  94 CALM      30.08S
FERGUS FALLS   CLEAR     64  55  72 E3        30.08S
MORRIS MN      PTCLDY    63  61  94 CALM      30.08S
STAPLES        CLEAR     61  57  88 CALM      30.09S
$$
  *****  WEATHER ELSEWHERE ACROSS MINNESOTA  *****

CITY           SKY/WX    TMP DP  RH WIND       PRES   REMARKS
DULUTH         CLEAR     58  50  75 E5        30.10S
INTRNTL FALLS  CLEAR     49  47  93 CALM      30.08R
ELY            CLEAR     54  50  87 CALM      30.11S
CLOQUET        CLEAR     55  50  82 CALM      30.10S
WHEATON        PTCLDY    63  61  94 CALM      30.10R
BRAINERD       CLEAR     62  60  93 CALM      30.09R
HIBBING        FOG       54  52  93 NW3       30.10S VSB 3/4
ALEXANDRIA     CLEAR     66  60  81 CALM      30.11R
SAINT CLOUD    CLEAR     64  59  83 CALM      30.08R
MINNEAPOLIS    CLEAR     71  61  70 CALM      30.08R
$$

  *****  WEATHER ACROSS SOUTH DAKOTA  *****

CITY           SKY/WX    TMP DP  RH WIND       PRES   REMARKS
SIOUX FALLS    PTCLDY    64  58  80 CALM      30.12S
BROOKINGS      NOT AVBL
WATERTOWN      CLEAR     66  59  78 SE5       30.11R
HURON          CLOUDY    70  58  65 SW10      30.10R
SISSETON         N/A     64  63  96 W3        30.08R
ABERDEEN       PTCLDY    64  59  83 SE5       30.08R
MITCHELL       CLOUDY    71  59  65 W10       30.13R
PIERRE         MOCLDY    70  59  68 SE7       30.03R
MOBRIDGE       TSTM      68  63  84 S6G31     30.10R
RAPID CITY     CLEAR     70  48  45 W5        30.07F
$$

  *****  SOME WEATHER IN NEARBY STATES *****

CITY           SKY/WX    TMP DP  RH WIND       PRES   REMARKS
GLASGOW MT     PTCLDY    67  55  65 NE15G24   30.14R
GREAT FALLS MT CLOUDY    75  47  36 E15G23    30.14S
CHEYENNE WY    CLEAR     61  49  64 W5        30.31S
SCOTTSBLUFF NE CLEAR     65  55  70 CALM      30.15F
OMAHA NE       CLEAR     66  63  90 NW8       30.12R
DES MOINES IA  CLEAR     72  60  66 SE3       30.11R
DAVENPORT IA   CLEAR     66  61  84 NE9       30.13R
CHICAGO IL     CLOUDY    65  53  65 SE8       30.08F
EAU CLAIRE WI  CLEAR     66  63  90 SE3       30.08F
LA CROSSE WI   PTCLDY    68  56  65 SE6       30.09S
$$

  *****  SOME NATIONAL WEATHER *****

CITY           SKY/WX    TMP DP  RH WIND       PRES   REMARKS
LA GUARDIA NY  CLOUDY    73  64  73 SE7       30.19S
RALEIGH NC     DRIZZLE   65  62  90 N5        30.12S
ATLANTA GA     MOCLDY    70  63  78 E10       30.10R
NEW ORLEANS LA MOCLDY    80  68  66 SE6       29.99R
OKLAHOMA CITY  PTCLDY    69  65  86 S5        30.09R
ALBUQUERQUE NM TSTM      62  60  93 N9        30.29R VSB 1
SALT LAKE CITY PTCLDY    76  51  41 S6        30.08F
LOS ANGELES CA CLOUDY    66  63  90 W8        29.92R
BOISE ID       CLOUDY    85  44  23 SE5       29.98R
SEATTLE WA     PTCLDY    71  54  54 N7        29.98S
$$

*** WEATHER ACROSS MANITOBA...SASKATCHEWAN AND ONTARIO ***
                ***ONTARIO***

CITY           SKY/WX    TMP DP  RH WIND       PRES   REMARKS
GERALDTON      NOT AVBL
THUNDER BAY    NOT AVBL
SIOUX LOOKOUT  NOT AVBL
TORONTO        NOT AVBL
BIG TROUT LK   NOT AVBL
PICKLE LAKE    NOT AVBL
DRYDEN         NOT AVBL
KENORA         NOT AVBL
$$
                *** MANITOBA***

CITY           SKY/WX    TMP DP  RH WIND       PRES   REMARKS
BRANDON        NOT AVBL
DAUPHIN        NOT AVBL
ISLAND LAKE    NOT AVBL
PILOT MOUND    NOT AVBL
THE PAS        NOT AVBL
THOMPSON       NOT AVBL
WINNIPEG       NOT AVBL
$$
                ***SASKATCHEWAN***

CITY           SKY/WX    TMP DP  RH WIND       PRES   REMARKS
ESTEVAN        NOT AVBL
KINDERSLEY     NOT AVBL
LLOYDMINSTER   NOT AVBL
PRINCE ALBERT  NOT AVBL
REGINA         NOT AVBL
YORKTON        NOT AVBL
N. BATTLEFORD  NOT AVBL
LA RONGE       NOT AVBL
SASKATOON      NOT AVBL
SWIFT CURRENT  NOT AVBL
$$
NOTE: THESE ARE AUTOMATED STATIONS WITH LIMITED QUALITY CONTROL
      "FAIR" INDICATES FEW OR NO CLOUDS BELOW 12,000 FEET WITH NO
      SIGNIFICANT WEATHER AND/OR OBSTRUCTIONS TO VISIBILITY.
      SKY/WX - SKY CONDITION AND SIGNIFICANT WEATHER.
      TMP - AIR TEMPERATURE.    DP   - DEWPOINT TEMPERATURE.
      RH  - RELATIVE HUMIDITY.  PRES - PRESSURE.
      HX  - HEAT INDEX.         WCI  - WIND CHILL INDEX.
$



USA.gov is the U.S. government's official web portal to all federal, state and local government web resources and services.